Weather History for CWEL - January, 2013

Change the Weather History Date:

Saturday, January 5, 2013

  Actual Average Record
Temperature  
Mean Temperature 42 °F -  
Max Temperature 44 °F - - ()
Min Temperature 41 °F - - ()
Degree Days  
Heating Degree Days 22    
Moisture  
Dew Point -    
Average Humidity    
Maximum Humidity    
Minimum Humidity    
Precipitation  
Precipitation 0.02 in - - ()
Sea Level Pressure  
Sea Level Pressure 30.09 in    
Wind  
Wind Speed 12 mph ()    
Max Wind Speed 23 mph    
Max Gust Speed -    
T = Trace of Precipitation, MM = Missing Value Source: Averaged Metar Reports

Daily Weather History Graph

Daily Weather History Graph

Search for Another Location

Airport or City:

Trip Planner

Search our weather history database for the weather conditions in past years. The results will help you decide how hot, cold, wet, or windy it might be!

Date:

Astronomy

Jan. 05, 2013 Rise Set
Actual Time 8:09 AM PST 4:32 PM PST
Civil Twilight 7:32 AM PST 5:09 PM PST
Nautical Twilight 6:52 AM PST 5:49 PM PST
Astronomical Twilight 6:13 AM PST 6:28 PM PST
Moon 1:03 AM PST (1/5) 11:41 AM PST (1/5)
Length of Visible Light 9h 37m
Length of Day
8h 22m
Last Quarter, 43% of the Moon is Illuminated
Jan 5
Last Quarter
Jan 11
New
Jan 18
First Quarter
Jan 26
Full
Feb 3
Last Quarter

Hourly Weather History & Observations

Time (PST) Temp. Windchill Dew Point Humidity Pressure Visibility Wind Dir Wind Speed Gust Speed Precip Events Conditions
12:00 AM 43.0 °F 36.8 °F - N/A% 30.15 in - SSE 11.5 mph - N/A   Unknown
2:00 AM 42.8 °F 38.6 °F - N/A% 30.16 in - SSW 6.9 mph - N/A   Unknown
3:00 AM 43.0 °F 40.3 °F - N/A% 30.17 in - South 4.6 mph - N/A   Unknown
4:00 AM 43 °F - - % 30.16 in - SE 5.8 mph - -  
4:00 AM 43.2 °F 39.7 °F - N/A% 30.16 in - SE 5.8 mph - 0.01 in   Unknown
6:00 AM 42.6 °F 34.3 °F - N/A% 30.13 in - SE 18.4 mph - N/A   Unknown
7:00 AM 42.3 °F 33.6 °F - N/A% 30.12 in - SE 19.6 mph - N/A   Unknown
8:00 AM 43.9 °F 35.9 °F - N/A% 30.12 in - ESE 18.4 mph - N/A   Unknown
9:00 AM 42.6 °F 34.0 °F - N/A% 30.11 in - SE 19.6 mph - 0.01 in   Unknown
10:00 AM 43 °F - - % 30.13 in - SE 19.6 mph - -  
10:00 AM 42.6 °F 34.0 °F - N/A% 30.13 in - SE 19.6 mph - N/A   Unknown
11:00 AM 42.3 °F 34.8 °F - N/A% 30.13 in - SE 15.0 mph - N/A   Unknown
12:00 PM 42.8 °F 34.0 °F - N/A% 30.10 in - SE 20.7 mph - N/A   Unknown
1:00 PM 43.7 °F 34.7 °F - N/A% 30.07 in - SE 23.0 mph - N/A   Unknown
2:00 PM 43.5 °F 35.5 °F - N/A% 30.06 in - SE 18.4 mph - N/A   Unknown
3:00 PM 43.7 °F 35.4 °F - N/A% 30.05 in - SE 19.6 mph - N/A   Unknown
4:00 PM 44 °F - - % 30.04 in - SE 20.7 mph - -  
4:00 PM 43.7 °F 35.2 °F - N/A% 30.04 in - SE 20.7 mph - N/A   Unknown
5:00 PM 43.9 °F 35.7 °F - N/A% 30.03 in - SE 19.6 mph - N/A   Unknown
6:00 PM 43.5 °F 36.1 °F - N/A% 30.04 in - SE 16.1 mph - N/A   Unknown
7:00 PM 43.9 °F 35.7 °F - N/A% 30.01 in - SE 19.6 mph - N/A   Unknown
8:00 PM 44.1 °F 38.6 °F - N/A% 30.03 in - SSE 10.4 mph - N/A   Unknown
9:00 PM 43.9 °F 39.3 °F - N/A% 30.02 in - ESE 8.1 mph - N/A   Unknown
10:00 PM 44 °F - - % 30.03 in - SSE 8.1 mph - -  
10:00 PM 44.2 °F 39.7 °F - N/A% 30.03 in - SSE 8.1 mph - N/A   Unknown
11:00 PM 43.3 °F - - N/A% 30.04 in - SSW 1.2 mph - N/A   Unknown